Time,TemperatureF,DewpointF,PressureIn,WindDirection,WindDirectionDegrees,WindSpeedMPH,WindSpeedGustMPH,Humidity,HourlyPrecipIn,Conditions,Clouds,dailyrainin,SoftwareType,DateUTC
2013-03-22 00:06:00,18.9,13.0,30.04,NNW,333,0.0,0.0,77,0.00,,,0.00,weatherlink.com 1.10,2013-03-22 05:06:00,
2013-03-22 00:21:00,18.9,13.0,30.05,NNW,333,0.0,0.0,78,0.00,,,0.00,weatherlink.com 1.10,2013-03-22 05:21:00,
2013-03-22 00:51:00,18.2,13.0,30.05,NNW,333,0.0,0.0,80,0.00,,,0.00,weatherlink.com 1.10,2013-03-22 05:51:00,
2013-03-22 01:06:00,17.9,13.0,30.05,NNW,333,0.0,0.0,81,0.00,,,0.00,weatherlink.com 1.10,2013-03-22 06:06:00,
2013-03-22 01:21:00,17.3,12.0,30.05,NNW,333,0.0,0.0,81,0.00,,,0.00,weatherlink.com 1.10,2013-03-22 06:21:00,
2013-03-22 01:36:00,16.7,13.0,30.05,NNW,333,0.0,0.0,84,0.00,,,0.00,weatherlink.com 1.10,2013-03-22 06:36:00,
2013-03-22 01:51:00,16.6,13.0,30.05,NNW,333,0.0,0.0,84,0.00,,,0.00,weatherlink.com 1.10,2013-03-22 06:51:00,
2013-03-22 02:06:00,16.4,12.0,30.05,NNW,333,0.0,0.0,84,0.00,,,0.00,weatherlink.com 1.10,2013-03-22 07:06:00,
2013-03-22 02:21:00,16.5,13.0,30.05,NNW,333,0.0,0.0,85,0.00,,,0.00,weatherlink.com 1.10,2013-03-22 07:21:00,
2013-03-22 02:36:00,16.8,13.0,30.05,NNW,333,0.0,0.0,84,0.00,,,0.00,weatherlink.com 1.10,2013-03-22 07:36:00,
2013-03-22 02:51:00,16.7,13.0,30.05,NNW,333,0.0,0.0,84,0.00,,,0.00,weatherlink.com 1.10,2013-03-22 07:51:00,
2013-03-22 03:06:00,16.3,12.0,30.05,NNW,333,0.0,0.0,84,0.00,,,0.00,weatherlink.com 1.10,2013-03-22 08:06:00,
2013-03-22 03:21:00,16.1,12.0,30.05,NNW,333,0.0,0.0,83,0.00,,,0.00,weatherlink.com 1.10,2013-03-22 08:21:00,
2013-03-22 03:36:00,15.8,11.0,30.05,NNW,333,0.0,0.0,82,0.00,,,0.00,weatherlink.com 1.10,2013-03-22 08:36:00,
2013-03-22 03:51:00,15.3,11.0,30.05,NNW,333,0.0,0.0,83,0.00,,,0.00,weatherlink.com 1.10,2013-03-22 08:51:00,
2013-03-22 04:06:00,14.7,11.0,30.05,NNW,333,0.0,0.0,84,0.00,,,0.00,weatherlink.com 1.10,2013-03-22 09:06:00,
2013-03-22 04:21:00,14.4,10.0,30.05,NNW,333,0.0,0.0,84,0.00,,,0.00,weatherlink.com 1.10,2013-03-22 09:21:00,
2013-03-22 04:36:00,14.1,10.0,30.05,NNW,333,0.0,0.0,84,0.00,,,0.00,weatherlink.com 1.10,2013-03-22 09:36:00,
2013-03-22 04:51:00,14.0,10.0,30.05,NNW,333,0.0,0.0,84,0.00,,,0.00,weatherlink.com 1.10,2013-03-22 09:51:00,
2013-03-22 05:06:00,14.4,10.0,30.05,NNW,333,0.0,0.0,83,0.00,,,0.00,weatherlink.com 1.10,2013-03-22 10:06:00,
2013-03-22 05:21:00,14.4,10.0,30.05,NNW,333,0.0,0.0,82,0.00,,,0.00,weatherlink.com 1.10,2013-03-22 10:21:00,
2013-03-22 05:36:00,14.1,10.0,30.05,NNW,333,0.0,0.0,82,0.00,,,0.00,weatherlink.com 1.10,2013-03-22 10:36:00,
2013-03-22 05:51:00,13.9,10.0,30.05,NNW,333,0.0,0.0,83,0.00,,,0.00,weatherlink.com 1.10,2013-03-22 10:51:00,
2013-03-22 06:06:00,14.0,10.0,30.05,NNW,333,0.0,0.0,83,0.00,,,0.00,weatherlink.com 1.10,2013-03-22 11:06:00,
2013-03-22 06:36:00,13.6,9.0,30.05,NNW,333,0.0,0.0,83,0.00,,,0.00,weatherlink.com 1.10,2013-03-22 11:36:00,
2013-03-22 06:52:00,13.5,9.0,30.05,NNW,333,0.0,0.0,83,0.00,,,0.00,weatherlink.com 1.10,2013-03-22 11:52:00,
2013-03-22 07:06:00,13.5,9.0,30.05,NNW,333,0.0,0.0,83,0.00,,,0.00,weatherlink.com 1.10,2013-03-22 12:06:00,
2013-03-22 07:21:00,13.5,9.0,30.05,NNW,333,0.0,0.0,83,0.00,,,0.00,weatherlink.com 1.10,2013-03-22 12:21:00,
2013-03-22 07:36:00,13.5,10.0,30.05,NNW,333,0.0,0.0,84,0.00,,,0.00,weatherlink.com 1.10,2013-03-22 12:36:00,
2013-03-22 07:51:00,14.0,10.0,30.05,NNW,333,0.0,0.0,83,0.00,,,0.00,weatherlink.com 1.10,2013-03-22 12:51:00,
2013-03-22 08:06:00,14.8,11.0,30.05,NNW,333,0.0,0.0,83,0.00,,,0.00,weatherlink.com 1.10,2013-03-22 13:06:00,
2013-03-22 08:21:00,15.0,11.0,30.05,WSW,250,1.0,2.0,83,0.00,,,0.00,weatherlink.com 1.10,2013-03-22 13:21:00,
2013-03-22 08:36:00,15.9,11.0,30.06,WSW,248,0.0,3.0,82,0.00,,,0.00,weatherlink.com 1.10,2013-03-22 13:36:00,
2013-03-22 08:51:00,16.8,13.0,30.06,West,262,1.0,3.0,83,0.00,,,0.00,weatherlink.com 1.10,2013-03-22 13:51:00,
2013-03-22 09:07:00,18.3,13.0,30.06,West,261,1.0,2.0,81,0.00,,,0.00,weatherlink.com 1.10,2013-03-22 14:07:00,
2013-03-22 09:22:00,19.9,14.0,30.06,WSW,256,0.0,3.0,79,0.00,,,0.00,weatherlink.com 1.10,2013-03-22 14:22:00,
2013-03-22 09:37:00,21.0,15.0,30.05,WSW,253,2.0,3.0,77,0.00,,,0.00,weatherlink.com 1.10,2013-03-22 14:37:00,
2013-03-22 09:52:00,22.2,15.0,30.05,WSW,255,0.0,2.0,75,0.00,,,0.00,weatherlink.com 1.10,2013-03-22 14:52:00,
2013-03-22 10:07:00,23.7,15.0,30.05,WSW,256,2.0,4.0,70,0.00,,,0.00,weatherlink.com 1.10,2013-03-22 15:07:00,
2013-03-22 10:22:00,24.4,15.0,30.05,West,261,3.0,3.0,68,0.00,,,0.00,weatherlink.com 1.10,2013-03-22 15:22:00,
2013-03-22 10:37:00,25.4,15.0,30.06,WSW,244,2.0,4.0,65,0.00,,,0.00,weatherlink.com 1.10,2013-03-22 15:37:00,
2013-03-22 10:52:00,25.8,15.0,30.06,West,261,1.0,5.0,64,0.00,,,0.00,weatherlink.com 1.10,2013-03-22 15:52:00,
2013-03-22 11:22:00,26.9,15.0,30.06,West,263,1.0,5.0,62,0.00,,,0.00,weatherlink.com 1.10,2013-03-22 16:22:00,
2013-03-22 11:37:00,27.4,17.0,30.06,WSW,257,3.0,5.0,65,0.00,,,0.00,weatherlink.com 1.10,2013-03-22 16:37:00,
2013-03-22 11:52:00,28.5,16.0,30.05,WSW,250,3.0,5.0,59,0.00,,,0.00,weatherlink.com 1.10,2013-03-22 16:52:00,
2013-03-22 12:07:00,28.9,16.0,30.05,NNW,343,3.0,4.0,59,0.00,,,0.00,weatherlink.com 1.10,2013-03-22 17:07:00,
2013-03-22 12:22:00,29.2,15.0,30.05,West,277,2.0,5.0,55,0.00,,,0.00,weatherlink.com 1.10,2013-03-22 17:22:00,
2013-03-22 12:37:00,29.4,14.0,30.05,NNE,24,3.0,5.0,53,0.00,,,0.00,weatherlink.com 1.10,2013-03-22 17:37:00,
2013-03-22 12:52:00,29.9,15.0,30.04,West,261,2.0,4.0,55,0.00,,,0.00,weatherlink.com 1.10,2013-03-22 17:52:00,
2013-03-22 13:07:00,29.8,15.0,30.04,North,360,2.0,5.0,54,0.00,,,0.00,weatherlink.com 1.10,2013-03-22 18:07:00,
2013-03-22 13:22:00,30.5,14.0,30.04,NNE,33,1.0,3.0,50,0.00,,,0.00,weatherlink.com 1.10,2013-03-22 18:22:00,
2013-03-22 13:37:00,30.2,16.0,30.04,West,268,2.0,4.0,55,0.00,,,0.00,weatherlink.com 1.10,2013-03-22 18:37:00,
2013-03-22 13:52:00,30.3,13.0,30.03,SW,230,2.0,4.0,49,0.00,,,0.00,weatherlink.com 1.10,2013-03-22 18:52:00,
2013-03-22 14:07:00,31.1,14.0,30.03,WNW,286,3.0,5.0,49,0.00,,,0.00,weatherlink.com 1.10,2013-03-22 19:07:00,
2013-03-22 14:22:00,31.5,14.0,30.02,North,355,1.0,4.0,49,0.00,,,0.00,weatherlink.com 1.10,2013-03-22 19:22:00,
2013-03-22 14:37:00,31.5,14.0,30.01,NNE,20,1.0,5.0,49,0.00,,,0.00,weatherlink.com 1.10,2013-03-22 19:37:00,
2013-03-22 14:52:00,32.0,16.0,30.01,NNW,330,4.0,5.0,51,0.00,,,0.00,weatherlink.com 1.10,2013-03-22 19:52:00,
2013-03-22 15:07:00,31.5,16.0,30.01,North,11,1.0,4.0,52,0.00,,,0.00,weatherlink.com 1.10,2013-03-22 20:07:00,
2013-03-22 15:22:00,32.1,16.0,30.01,NE,38,1.0,4.0,52,0.00,,,0.00,weatherlink.com 1.10,2013-03-22 20:22:00,
2013-03-22 15:37:00,32.4,16.0,30.01,North,360,2.0,5.0,50,0.00,,,0.00,weatherlink.com 1.10,2013-03-22 20:37:00,
2013-03-22 15:52:00,32.6,16.0,30.01,NE,47,3.0,5.0,50,0.00,,,0.00,weatherlink.com 1.10,2013-03-22 20:52:00,
2013-03-22 16:07:00,32.6,15.0,30.02,NNW,338,3.0,5.0,49,0.00,,,0.00,weatherlink.com 1.10,2013-03-22 21:07:00,
2013-03-22 16:23:00,32.8,16.0,30.02,NNE,17,1.0,4.0,50,0.00,,,0.00,weatherlink.com 1.10,2013-03-22 21:23:00,
2013-03-22 16:38:00,33.4,16.0,30.02,NNE,16,2.0,3.0,49,0.00,,,0.00,weatherlink.com 1.10,2013-03-22 21:38:00,
2013-03-22 16:53:00,33.0,16.0,30.02,NNE,17,2.0,4.0,50,0.00,,,0.00,weatherlink.com 1.10,2013-03-22 21:53:00,
2013-03-22 17:08:00,32.8,15.0,30.02,NNE,26,2.0,4.0,49,0.00,,,0.00,weatherlink.com 1.10,2013-03-22 22:08:00,
2013-03-22 17:23:00,32.4,16.0,30.02,North,5,4.0,4.0,51,0.00,,,0.00,weatherlink.com 1.10,2013-03-22 22:23:00,
2013-03-22 17:38:00,31.9,16.0,30.02,NNE,23,0.0,5.0,52,0.00,,,0.00,weatherlink.com 1.10,2013-03-22 22:38:00,
2013-03-22 17:53:00,32.2,16.0,30.03,North,11,2.0,4.0,51,0.00,,,0.00,weatherlink.com 1.10,2013-03-22 22:53:00,
2013-03-22 18:08:00,32.0,16.0,30.03,NE,35,1.0,2.0,51,0.00,,,0.00,weatherlink.com 1.10,2013-03-22 23:08:00,
2013-03-22 18:23:00,31.6,17.0,30.03,NE,48,0.0,2.0,55,0.00,,,0.00,weatherlink.com 1.10,2013-03-22 23:23:00,
2013-03-22 18:38:00,31.2,16.0,30.02,NE,53,0.0,1.0,53,0.00,,,0.00,weatherlink.com 1.10,2013-03-22 23:38:00,
2013-03-22 18:53:00,30.7,16.0,30.02,NE,53,0.0,1.0,54,0.00,,,0.00,weatherlink.com 1.10,2013-03-22 23:53:00,
2013-03-22 19:08:00,30.2,16.0,30.02,NE,53,0.0,0.0,55,0.00,,,0.00,weatherlink.com 1.10,2013-03-23 00:08:00,
2013-03-22 19:23:00,29.6,16.0,30.02,NE,53,0.0,1.0,58,0.00,,,0.00,weatherlink.com 1.10,2013-03-23 00:23:00,
2013-03-22 19:38:00,29.0,17.0,30.03,NE,53,0.0,0.0,60,0.00,,,0.00,weatherlink.com 1.10,2013-03-23 00:38:00,
2013-03-22 19:53:00,28.8,16.0,30.03,NE,53,0.0,0.0,60,0.00,,,0.00,weatherlink.com 1.10,2013-03-23 00:53:00,
2013-03-22 20:08:00,28.4,16.0,30.04,NE,53,0.0,0.0,61,0.00,,,0.00,weatherlink.com 1.10,2013-03-23 01:08:00,
2013-03-22 20:23:00,28.3,17.0,30.04,NE,53,0.0,0.0,64,0.00,,,0.00,weatherlink.com 1.10,2013-03-23 01:23:00,
2013-03-22 20:38:00,28.1,18.0,30.05,NE,53,0.0,0.0,65,0.00,,,0.00,weatherlink.com 1.10,2013-03-23 01:38:00,
2013-03-22 20:53:00,28.0,18.0,30.05,NE,53,0.0,0.0,65,0.00,,,0.00,weatherlink.com 1.10,2013-03-23 01:53:00,
2013-03-22 21:08:00,27.9,17.0,30.05,NE,53,0.0,0.0,65,0.00,,,0.00,weatherlink.com 1.10,2013-03-23 02:08:00,
2013-03-22 21:23:00,27.8,17.0,30.05,NE,53,0.0,0.0,65,0.00,,,0.00,weatherlink.com 1.10,2013-03-23 02:23:00,
2013-03-22 21:38:00,27.0,18.0,30.05,NE,53,0.0,1.0,69,0.00,,,0.00,weatherlink.com 1.10,2013-03-23 02:38:00,
2013-03-22 21:53:00,27.1,17.0,30.05,NE,53,1.0,1.0,66,0.00,,,0.00,weatherlink.com 1.10,2013-03-23 02:53:00,
2013-03-22 22:08:00,27.9,17.0,30.05,NE,53,1.0,2.0,65,0.00,,,0.00,weatherlink.com 1.10,2013-03-23 03:08:00,
2013-03-22 22:23:00,28.0,18.0,30.05,NE,53,0.0,1.0,66,0.00,,,0.00,weatherlink.com 1.10,2013-03-23 03:23:00,
2013-03-22 22:38:00,28.1,18.0,30.04,NE,53,0.0,2.0,65,0.00,,,0.00,weatherlink.com 1.10,2013-03-23 03:38:00,
2013-03-22 22:53:00,27.9,17.0,30.04,NE,52,2.0,3.0,65,0.00,,,0.00,weatherlink.com 1.10,2013-03-23 03:53:00,
2013-03-22 23:08:00,27.2,20.0,30.05,NE,45,1.0,2.0,74,0.00,,,0.00,weatherlink.com 1.10,2013-03-23 04:08:00,
2013-03-22 23:23:00,26.0,19.0,30.05,NE,43,0.0,2.0,75,0.00,,,0.00,weatherlink.com 1.10,2013-03-23 04:23:00,
2013-03-22 23:38:00,25.8,19.0,30.05,NE,43,0.0,1.0,76,0.00,,,0.00,weatherlink.com 1.10,2013-03-23 04:38:00,
2013-03-22 23:53:00,26.0,19.0,30.05,NE,43,0.0,0.0,76,0.00,,,0.00,weatherlink.com 1.10,2013-03-23 04:53:00,